TimeEDT,TemperatureF,Dew PointF,Humidity,Sea Level PressureIn,VisibilityMPH,Wind Direction,Wind SpeedMPH,Gust SpeedMPH,PrecipitationIn,Events,Conditions,WindDirDegrees,DateUTC
12:53 AM,64.0,60.1,87,29.93,10.0,Calm,Calm,-,N/A,,Partly Cloudy,0,2013-08-20 04:53:00
1:53 AM,62.1,60.1,93,29.94,10.0,Calm,Calm,-,N/A,,Partly Cloudy,0,2013-08-20 05:53:00
2:53 AM,62.1,60.1,93,29.94,10.0,Calm,Calm,-,N/A,,Partly Cloudy,0,2013-08-20 06:53:00
3:53 AM,61.0,59.0,93,29.94,10.0,Calm,Calm,-,N/A,,Partly Cloudy,0,2013-08-20 07:53:00
4:53 AM,61.0,59.0,93,29.95,8.0,Calm,Calm,-,N/A,,Scattered Clouds,0,2013-08-20 08:53:00
5:53 AM,60.1,57.9,93,29.98,6.0,West,3.5,-,N/A,,Mostly Cloudy,260,2013-08-20 09:53:00
6:53 AM,64.9,60.1,84,29.99,10.0,West,6.9,-,N/A,,Mostly Cloudy,260,2013-08-20 10:53:00
7:53 AM,66.9,60.1,79,30.00,10.0,West,5.8,-,N/A,,Mostly Cloudy,260,2013-08-20 11:53:00
8:53 AM,72.0,62.1,71,30.01,10.0,West,3.5,-,N/A,,Mostly Cloudy,260,2013-08-20 12:53:00
9:53 AM,78.1,62.1,58,30.01,10.0,Variable,3.5,-,N/A,,Mostly Cloudy,0,2013-08-20 13:53:00
10:53 AM,77.0,63.0,62,30.02,10.0,Variable,4.6,-,N/A,,Mostly Cloudy,0,2013-08-20 14:53:00
11:53 AM,81.0,63.0,54,30.01,10.0,SW,6.9,-,N/A,,Mostly Cloudy,230,2013-08-20 15:53:00
12:53 PM,81.0,61.0,50,30.00,10.0,SSW,5.8,-,N/A,,Mostly Cloudy,210,2013-08-20 16:53:00
1:53 PM,82.9,61.0,47,30.00,10.0,SSW,5.8,-,N/A,,Mostly Cloudy,210,2013-08-20 17:53:00
2:53 PM,84.0,59.0,43,29.99,10.0,SW,12.7,17.3,N/A,,Scattered Clouds,230,2013-08-20 18:53:00
3:53 PM,84.0,60.1,44,29.99,10.0,SW,6.9,-,N/A,,Scattered Clouds,230,2013-08-20 19:53:00
4:53 PM,82.0,64.0,54,29.99,10.0,SSW,6.9,-,N/A,,Scattered Clouds,200,2013-08-20 20:53:00
5:53 PM,79.0,64.0,60,29.99,10.0,South,9.2,-,N/A,,Partly Cloudy,180,2013-08-20 21:53:00
6:53 PM,75.9,63.0,64,30.01,10.0,South,6.9,-,N/A,,Partly Cloudy,170,2013-08-20 22:53:00
7:53 PM,73.0,62.1,68,30.02,10.0,South,5.8,-,N/A,,Scattered Clouds,170,2013-08-20 23:53:00
8:53 PM,71.1,63.0,75,30.03,10.0,South,6.9,-,N/A,,Partly Cloudy,190,2013-08-21 00:53:00
9:53 PM,69.1,63.0,81,30.05,10.0,Calm,Calm,-,N/A,,Scattered Clouds,0,2013-08-21 01:53:00
10:53 PM,66.9,62.1,84,30.05,10.0,SW,3.5,-,N/A,,Scattered Clouds,230,2013-08-21 02:53:00
11:53 PM,64.0,62.1,93,30.06,7.0,Calm,Calm,-,N/A,,Scattered Clouds,0,2013-08-21 03:53:00